Location: Voyageurs National Park
(48.5020°N, 92.9292°W)
Time: 19:07:59
(UTC-06:00)

BREEZE-M DEB (TANK) - Pass Details

Date: 19 January 2018
Orbit: 297 x 16816 km, 49.4° (Epoch: 20 February)

Event Time Altitude Azimuth Distance (km) Brightness Sun altitude
Exits shadow 05:24:27 75° 64° (ENE) 602 3.0 -24.5°
Drops below altitude 10° 05:30:56 10° 97° (E) 3,566 8.0 -23.5°
Sets 05:36:45 0° 99° (E) 6,208 9.7 -22.5°
